{"data":{"norad_id":57217,"intl_designator":"2023-091AV","name":"KUZGTU 1 (RS47S)","alt_names":[],"object_type":"PAYLOAD","status":"ACTIVE","operator":null,"country":"CIS","launch_date":"2023-06-27","launch_site_code":"VOSTO","launch_vehicle":null,"mission":null,"orbit_class":"UNKNOWN","rcs_meters":null,"size_class":null,"mass_kg":null,"dimensions":null,"purposes":["comms"],"wikipedia_slug":null,"has_3d_model":false,"image_url":null,"decayed_at":null,"tle_current":{"epoch":"2026-05-25T03:17:29.805792Z","epoch_age_seconds":70079,"freshness":"FRESH","line1":"1 57217U 23091AV  26145.13715053  .00011773  00000+0  41663-3 0  9991","line2":"2 57217  97.5077 209.3914 0011627 170.2680 189.8787 15.29243506160853","mean_motion":15.29243506,"eccentricity":0.0011627,"inclination_deg":97.5077,"raan_deg":209.3914,"arg_perigee_deg":170.268,"mean_anomaly_deg":189.8787,"bstar":0.00041663,"rev_number":16085,"period_min":94.164205657905,"perigee_km":470.1007618055,"apogee_km":486.0441913223,"semimajor_km":6856.2094765639,"source":"CELESTRAK","updated_at":"2026-05-25T13:38:23.293149Z"}}}